Location: Chanteloup
(48.8560°N, 2.7390°E)
Time: 09:46:02
(UTC+00:00)

CZ-2C R/B - Pass Details

Date: 24 October 2021
Orbit: 784 x 871 km, 98.2° (Epoch: 30 November)

Event Time Altitude Azimuth Distance (km) Brightness Sun altitude
Rises 18:38:54 0° 11° (N) 3,469 5.8 -19.8°
Reaches altitude 10° 18:41:20 10° 8° (N) 2,522 5.1 -20.2°
Maximum altitude 18:46:51 61° 290° (WNW) 976 3.2 -21.1°
Drops below altitude 10° 18:52:15 10° 211° (SSW) 2,465 5.4 -22.0°
Sets 18:54:36 0° 208° (SSW) 3,383 6.1 -22.4°
